Theta_e
310 310 311 312 313 315 317 318 320 320 320 319 319 319 319 319 321 322 321 321 322 323 324 324 324 324 322 312 310 323 329 330 329 325 316 308 304 303 300 302 306 304 307 310 311 310 308
308 310 309 310 311 313 314 316 318 319 319 318 318 318 318 318 320 321 321 320 321 322 323 324 324 322 311 305 321 323 326 325 323 320 316 311 306 307 303 302 302 306 307 306 307 308 307
308 308 309 310 311 311 312 314 316 317 317 318 317 317 317 318 319 320 319 320 320 320 322 322 322 312 304 307 320 318 324 323 324 321 313 315 312 308 305 301 305 306 300 301 303 306 307
307 307 307 309 310 310 311 311 313 315 315 317 317 316 317 317 318 319 319 320 319 319 319 320 320 311 299 310 311 311 322 320 323 322 315 316 317 310 305 305 303 300 298 293 300 304 308
306 307 307 308 308 309 309 311 312 313 314 315 316 316 316 316 317 318 318 319 318 319 318 318 307 304 297 312 305 309 319 316 317 317 315 318 316 308 302 298 295 296 287 291 296 303 301
306 307 308 307 307 308 308 309 310 312 313 314 315 315 316 316 315 316 317 317 317 316 312 310 308 297 300 298 306 310 317 317 311 311 310 310 308 303 300 297 289 287 290 291 293 298 297
305 306 306 307 307 309 307 310 309 312 312 314 314 315 316 315 315 316 314 306 298 297 302 296 297 295 299 304 310 307 315 312 310 308 301 305 299 296 299 299 294 292 291 291 295 300 295
306 305 306 304 308 307 307 308 309 312 313 314 315 315 315 315 315 316 308 297 297 297 293 299 300 300 302 305 299 305 313 304 304 298 302 300 295 301 303 300 298 292 290 290 296 297 295
305 306 307 307 307 308 308 309 307 310 312 312 311 314 315 315 314 311 303 298 304 301 289 294 299 299 299 302 298 298 307 304 300 298 298 294 297 301 300 298 296 296 294 290 292 292 293
305 306 307 308 308 308 308 308 309 310 311 311 309 314 314 314 308 305 300 303 305 301 282 284 292 296 298 300 294 303 307 302 300 296 298 297 300 298 298 297 298 293 297 296 294 291 286
306 306 307 309 307 307 307 307 308 309 309 310 305 313 314 313 304 300 302 304 304 297 267 285 292 301 300 294 294 296 307 302 294 296 297 292 297 297 296 297 300 295 298 296 295 292 290
304 305 305 305 308 307 307 307 308 308 309 309 306 313 313 308 305 304 305 304 300 280 270 280 293 292 291 293 293 298 299 301 300 296 297 297 299 300 297 299 300 300 297 294 292 291 284
303 305 304 306 307 307 307 308 308 308 309 308 307 312 310 306 299 306 306 297 280 272 279 282 286 291 288 288 290 293 293 293 290 286 287 292 296 298 301 297 300 298 293 285 283 284 281
305 304 304 305 307 307 307 307 308 308 309 308 310 312 308 305 306 306 301 283 266 272 274 287 290 289 285 288 288 290 289 288 293 292 289 285 283 295 300 297 294 295 292 284 277 278 280
303 304 304 305 305 306 307 307 307 307 308 306 310 305 302 304 307 304 290 276 272 273 282 287 289 285 285 287 286 286 286 287 290 293 288 287 287 296 298 296 297 294 290 293 283 271 276
303 304 305 306 304 306 307 307 307 308 307 309 302 299 299 306 306 299 284 275 275 283 287 287 279 284 278 285 286 284 284 288 289 293 296 293 286 294 295 298 297 295 298 288 286 274 274
303 305 305 306 306 306 307 307 307 308 309 308 299 291 301 306 303 290 278 276 279 288 288 283 282 284 285 284 287 285 286 288 291 291 295 295 290 290 294 293 292 292 291 291 289 283 278
304 304 305 305 306 306 307 307 308 308 308 302 292 285 301 304 287 284 280 280 287 286 288 286 286 284 284 286 285 287 284 288 293 293 289 293 291 285 289 293 298 296 292 292 286 282 281
304 305 305 305 306 307 308 308 308 307 306 295 288 287 297 299 280 282 279 283 285 285 286 285 284 285 287 286 281 286 288 292 293 293 291 292 287 283 285 289 291 292 293 295 292 286 285
305 305 305 305 306 308 308 307 307 307 304 295 290 283 285 286 276 283 276 277 280 287 286 287 285 287 285 284 287 284 286 292 295 294 297 296 288 286 283 288 291 289 292 293 292 286 287
307 306 307 307 307 307 308 307 307 306 304 293 286 283 285 281 275 279 276 278 278 280 285 287 284 284 283 279 282 283 285 286 290 296 295 294 286 289 288 290 292 292 292 292 291 291 287
308 309 308 307 309 308 307 306 305 303 301 289 283 283 280 283 280 280 276 272 277 275 283 282 281 284 285 280 282 280 284 286 287 292 292 295 287 290 286 290 291 289 292 293 293 293 292
308 308 308 307 307 306 306 305 304 303 298 287 286 286 285 283 273 275 275 274 278 283 284 286 285 284 283 284 287 288 289 289 289 287 288 290 289 285 283 288 288 285 290 292 293 295 294
305 307 307 307 306 305 305 305 303 302 297 290 287 286 281 279 276 274 280 281 280 281 280 285 286 285 287 291 291 291 291 290 290 289 291 286 287 287 284 286 278 288 295 295 294 295 297
306 307 306 305 305 305 305 304 303 302 300 290 288 286 280 278 277 277 280 280 280 281 280 283 285 289 291 288 279 274 280 283 286 289 290 290 286 282 282 282 284 285 285 292 291 291 298
305 306 306 305 305 305 305 304 302 301 299 289 287 286 284 280 276 282 277 280 278 280 281 280 287 289 289 284 275 274 275 275 275 284 289 290 289 285 283 281 279 289 288 294 295 286 297
305 305 305 305 305 304 305 303 303 302 300 291 287 286 285 281 285 283 283 282 285 282 279 279 281 286 287 283 278 277 277 282 279 280 283 283 284 283 283 283 284 286 290 297 286 289 298
305 305 305 305 305 305 304 303 302 301 300 291 288 288 285 278 285 288 288 285 285 286 281 281 279 283 284 280 280 279 279 281 281 282 284 285 284 283 285 283 280 287 294 291 296 293 291
304 304 305 305 305 304 303 302 301 301 299 294 285 288 289 283 282 289 288 288 287 287 284 281 279 284 286 282 285 284 281 280 277 279 285 285 289 285 286 286 285 295 292 289 289 292 288
Wind_Speed
32 31 31 31 30 30 28 27 28 31 30 29 28 26 25 23 22 22 22 21 17 14 12 12 10 9 8 8 5 6 15 16 6 4 7 5 5 6 6 4 4 3 4 4 5 4 4
33 32 32 32 31 31 29 27 27 27 31 31 29 27 26 24 23 22 22 21 20 16 13 12 12 9 1 17 3 5 8 11 10 9 8 6 8 5 5 6 5 6 4 1 2 3 3
33 34 34 33 31 31 30 29 28 29 27 33 31 29 27 25 23 21 20 20 19 17 14 14 13 4 2 13 3 5 7 10 16 10 4 4 3 5 7 4 3 4 1 3 4 2 5
33 34 35 35 32 31 30 29 29 27 21 38 32 30 28 26 25 23 19 17 17 16 15 14 14 4 6 3 4 2 3 4 9 7 2 2 1 2 3 4 4 4 2 1 3 6 6
34 35 35 35 34 33 30 30 29 28 26 24 33 31 29 28 27 24 21 18 16 15 15 12 5 4 6 5 4 6 4 8 11 5 5 3 2 3 3 6 2 4 4 5 6 8 2
32 34 34 34 33 36 32 30 30 28 26 26 33 32 30 29 28 26 22 19 16 12 9 5 2 3 6 8 6 6 4 6 6 11 8 7 5 5 4 6 13 7 5 4 6 4 4
32 34 35 36 35 34 32 32 30 30 26 30 39 33 33 31 29 28 21 11 8 1 9 8 8 3 1 4 5 6 6 8 5 8 9 8 7 8 17 16 2 6 5 9 3 6 5
27 36 31 31 37 32 33 35 31 33 28 29 35 34 34 32 30 30 17 11 14 7 11 8 2 3 3 3 6 7 11 11 10 18 11 6 16 16 10 10 7 3 4 4 3 2 5
33 36 37 35 38 33 33 33 29 31 28 21 23 38 35 34 33 22 19 11 9 7 7 11 4 6 2 3 3 13 16 9 14 17 17 16 22 14 10 10 14 13 15 4 3 3 3
36 39 38 42 40 37 33 33 29 29 28 27 11 40 38 37 27 18 16 9 7 5 6 4 11 8 4 7 4 5 8 9 7 22 20 18 13 17 17 19 15 21 6 6 5 1 5
42 37 35 36 35 37 34 32 30 28 29 28 16 42 39 37 19 18 18 9 7 6 4 6 10 5 9 8 6 4 10 12 18 11 7 12 14 17 22 23 18 10 11 6 1 2 4
37 31 25 29 35 40 35 33 30 27 28 28 20 38 41 23 13 16 16 12 5 5 8 5 10 14 11 8 2 3 5 4 2 7 11 12 3 11 9 8 17 8 7 4 2 1 10
40 35 26 27 36 38 35 32 30 28 28 29 19 42 35 18 16 21 17 13 6 6 3 7 8 15 17 13 11 6 15 14 15 15 18 20 10 7 9 9 15 17 10 4 6 7 15
32 32 25 26 41 38 32 31 28 28 29 28 23 43 26 12 21 24 14 9 6 4 8 5 7 14 16 10 14 9 10 16 20 16 4 18 15 15 17 16 11 27 15 5 9 7 9
16 19 20 25 37 32 32 31 29 28 31 30 32 14 14 20 23 19 16 15 10 8 9 10 8 11 9 9 9 10 10 15 13 27 18 8 18 17 12 5 16 12 13 12 6 3 2
10 16 21 32 33 34 31 31 30 30 31 36 11 15 14 25 23 17 14 9 5 6 9 5 6 4 7 17 9 19 13 14 15 19 20 4 6 18 10 8 5 12 16 11 3 4 6
10 18 26 30 31 31 31 31 31 25 25 36 15 8 16 22 16 12 17 7 5 2 5 6 5 5 4 8 12 12 8 13 21 14 18 6 4 8 11 18 21 10 13 8 7 5 6
18 19 26 28 29 30 29 29 29 33 35 24 4 8 12 18 14 7 12 7 4 6 2 4 4 4 6 8 3 11 11 8 8 14 19 21 3 3 24 5 19 23 8 18 10 13 5
22 23 25 28 28 27 30 31 23 48 27 8 6 7 6 15 8 15 1 5 3 5 5 4 4 3 1 4 4 8 6 6 5 9 16 10 10 10 4 4 3 18 15 24 13 3 18
21 24 25 27 27 30 28 28 43 30 26 8 8 9 5 4 1 15 7 4 4 3 5 5 5 5 4 2 1 2 4 4 7 11 21 7 12 15 13 12 6 24 30 26 27 15 22
18 27 26 27 29 26 35 43 34 26 17 7 4 4 2 13 2 10 6 5 5 5 2 4 3 4 7 4 5 9 6 3 5 8 14 16 19 24 31 27 15 18 24 28 26 31 22
23 35 27 18 35 44 43 32 26 15 12 8 6 7 4 7 7 9 2 4 9 1 7 2 4 9 9 9 11 4 1 7 10 8 7 15 17 18 28 21 29 24 24 27 26 30 28
32 38 39 35 38 38 32 28 19 17 13 5 0 3 7 8 4 6 5 6 7 9 3 5 11 5 9 11 8 10 12 12 14 13 8 10 15 10 23 29 17 28 32 33 30 34 33
29 35 33 33 33 29 26 23 24 21 13 5 2 5 7 3 5 4 6 5 4 3 6 2 3 6 3 2 3 4 8 14 19 22 16 11 10 13 13 10 24 18 26 26 32 36 36
27 30 32 31 29 28 25 22 24 21 15 6 2 5 5 5 5 5 8 6 4 3 1 2 3 4 3 4 3 6 5 5 16 23 21 20 10 6 10 17 3 7 14 35 27 37 31
23 25 26 26 24 24 25 23 22 19 14 7 4 2 6 9 4 7 5 5 5 4 2 4 4 5 4 3 3 7 7 5 6 5 17 20 19 11 5 14 18 32 11 10 11 24 22
22 22 23 22 23 22 19 18 18 18 19 8 4 4 7 7 2 4 4 6 7 4 3 2 2 2 5 5 8 8 12 4 13 7 7 12 14 20 20 10 9 4 13 22 19 32 20
23 23 21 20 20 20 17 15 16 14 14 9 1 5 5 5 3 2 3 5 3 2 4 3 4 2 3 6 6 7 7 10 8 7 8 13 11 8 14 16 23 13 19 26 35 2 5
24 23 23 23 22 19 17 15 14 14 12 8 4 4 4 7 4 2 1 2 2 3 5 2 3 3 6 4 4 3 4 3 6 11 4 9 11 9 13 13 3 20 7 6 6 4 3
Wind_Direction
269 262 267 267 262 259 250 245 233 225 220 213 212 212 210 203 206 208 203 196 188 182 188 166 161 138 157 211 215 171 175 171 162 194 251 202 177 135 173 161 110 161 215 228 234 264 268
269 267 263 261 260 262 255 249 241 235 219 213 206 209 206 198 199 202 199 195 193 177 170 166 154 149 186 221 127 71 152 140 205 172 209 217 190 198 129 161 183 197 213 330 306 266 261
265 262 262 257 254 254 254 250 243 241 245 209 203 201 202 194 190 194 193 191 194 180 169 171 167 113 221 218 101 53 161 173 185 190 203 247 282 187 139 142 208 127 253 348 235 213 238
260 262 259 256 253 248 247 248 247 243 249 203 200 197 197 192 184 189 183 180 186 181 173 162 153 108 232 236 239 15 172 198 189 164 123 332 253 119 148 145 58 120 102 213 262 167 249
263 256 254 253 251 246 246 241 244 237 230 226 202 194 194 189 180 177 175 170 170 171 171 149 91 186 233 128 202 180 163 174 168 158 154 180 270 163 90 115 114 225 196 189 306 199 190
270 263 251 251 250 250 238 243 237 234 226 222 219 191 189 186 182 169 167 161 159 154 119 68 48 102 238 213 154 153 155 152 126 162 186 199 207 169 140 177 210 196 186 182 205 239 219
265 262 257 256 237 241 241 239 232 226 223 223 202 187 184 181 174 164 148 125 104 148 183 182 185 265 63 163 116 187 147 137 128 209 199 168 216 224 196 206 162 161 182 198 194 218 185
278 262 248 260 254 235 221 237 226 224 219 217 183 186 180 177 169 159 144 179 163 148 174 240 251 260 50 91 148 188 138 176 191 219 185 193 224 227 200 198 212 177 199 223 293 195 190
292 278 250 233 237 229 226 225 210 224 213 208 199 179 176 173 161 154 173 174 154 123 124 215 173 252 213 144 214 199 181 190 202 208 206 216 223 220 221 195 206 223 219 190 229 8 255
300 286 265 240 226 225 219 218 216 210 206 193 254 178 172 162 162 158 173 168 146 104 99 225 199 236 190 146 231 197 202 176 222 215 209 220 224 194 209 218 198 227 151 165 210 242 253
298 282 278 223 213 211 210 209 211 207 204 199 208 165 170 165 148 171 150 121 115 60 106 201 171 159 165 174 138 232 169 212 220 202 184 207 196 195 200 210 192 227 169 179 145 269 320
293 277 256 220 208 200 201 201 203 203 200 189 180 170 166 156 147 147 131 120 74 113 232 172 146 171 156 196 176 99 166 159 140 246 260 253 130 215 195 179 177 153 105 97 96 34 269
289 275 246 228 196 191 193 193 196 192 194 183 209 170 162 149 152 140 139 133 134 182 275 180 176 175 177 177 192 143 190 193 198 193 216 225 215 212 150 181 172 183 159 172 210 195 241
244 246 235 217 186 183 186 188 190 191 182 174 197 161 147 133 137 145 144 129 120 191 194 233 159 167 186 143 202 164 153 207 216 216 208 216 216 213 184 196 180 190 174 163 188 189 259
220 221 210 180 169 178 178 183 184 189 176 165 185 148 126 143 145 144 148 179 188 179 160 161 149 164 178 185 140 192 220 213 215 221 211 190 224 169 206 172 157 188 202 180 111 38 53
197 193 185 167 180 172 177 176 169 175 186 184 140 125 134 142 147 149 158 172 146 161 123 150 151 141 172 176 160 180 183 225 221 224 215 204 257 189 187 181 228 186 183 186 143 174 243
148 149 155 158 165 168 170 173 175 166 168 135 123 106 141 138 138 148 178 181 149 141 113 136 147 133 105 175 184 182 218 238 199 205 194 228 241 188 169 196 187 175 186 199 174 162 196
160 149 148 152 155 160 165 170 169 167 139 112 95 101 141 139 143 167 184 154 138 134 77 98 97 92 142 138 186 212 223 212 183 192 203 210 252 230 212 170 225 206 190 191 201 211 223
153 146 151 154 156 159 158 154 157 131 131 104 85 98 69 160 150 169 118 107 122 131 149 134 112 107 133 139 144 187 219 269 291 168 213 182 216 263 179 241 205 204 205 198 214 62 218
149 155 160 159 159 160 163 154 143 135 123 90 115 119 60 65 320 151 136 145 103 63 121 116 120 108 111 161 226 294 228 246 210 242 222 191 225 226 243 221 166 209 206 199 204 211 224
184 154 148 148 155 160 144 135 132 121 124 89 44 97 97 163 231 128 101 128 119 138 85 120 69 152 146 163 199 230 214 288 269 242 236 213 237 226 236 255 202 208 211 208 208 220 214
66 141 141 140 173 130 126 119 108 89 85 76 111 131 66 85 98 113 125 217 159 252 136 178 146 189 180 190 194 158 286 214 242 208 203 215 228 231 246 231 237 222 214 208 215 226 233
83 109 116 110 104 110 114 113 82 65 73 81 34 61 98 130 89 96 187 177 182 128 202 165 191 169 209 238 244 248 262 263 259 282 273 239 231 207 241 220 222 230 207 210 215 222 214
64 93 108 112 103 109 102 89 67 59 81 109 97 97 89 114 93 151 142 111 123 174 137 225 168 169 165 44 315 284 257 254 250 246 233 247 245 222 245 209 216 230 215 210 212 221 222
91 100 113 115 110 99 88 78 76 74 67 80 62 91 99 96 118 69 98 106 109 2 263 216 206 178 80 46 356 311 297 261 233 232 225 209 206 237 245 217 302 252 198 196 196 228 219
93 101 105 114 113 106 92 89 88 85 84 83 51 44 98 114 243 135 136 143 140 171 229 249 229 173 124 154 166 230 238 264 253 245 213 202 204 201 246 231 218 232 153 150 174 263 205
104 101 105 112 120 123 102 95 87 79 79 88 56 15 85 100 153 103 129 171 178 165 167 241 238 172 151 205 235 239 245 211 241 228 163 198 209 211 222 246 268 196 167 136 170 233 201
97 98 101 106 117 124 112 98 96 95 78 77 80 1 104 99 98 72 152 137 104 130 185 219 48 249 201 227 235 219 231 215 223 213 191 188 187 197 212 218 249 154 154 168 212 223 199
91 95 93 96 101 108 109 102 92 87 82 81 70 338 26 77 139 114 111 65 71 141 132 190 225 169 216 262 235 265 255 213 201 252 187 225 196 180 192 218 324 180 209 8 344 177 160